Hourly Weather Cementnyy

Today, 15 June, Tuesday

Time Temperature Precipitation Wind Pressure Humidity
00:00 +21°C° 0 mm 2 mps 750 mmHg 74%
01:00 +21°C° 0 mm 2 mps 750 mmHg 73%
02:00 +21°C° 0 mm 3 mps 749 mmHg 71%
03:00 +21°C° 0 mm 4 mps 749 mmHg 69%
04:00 +22°C° 0 mm 4 mps 749 mmHg 69%
05:00 +22°C° 0 mm 5 mps 749 mmHg 69%
06:00 +23°C° 0 mm 5 mps 749 mmHg 70%
07:00 +26°C° 0 mm 6 mps 749 mmHg 58%
08:00 +28°C° 0 mm 7 mps 749 mmHg 47%
09:00 +31°C° 0 mm 8 mps 748 mmHg 33%
10:00 +31°C° 0 mm 8 mps 748 mmHg 30%
11:00 +32°C° 0 mm 9 mps 748 mmHg 27%
12:00 +33°C° 0 mm 9 mps 747 mmHg 24%
13:00 +32°C° 0 mm 8 mps 747 mmHg 28%
14:00 +30°C° 0 mm 7 mps 747 mmHg 32%
15:00 +30°C° 0 mm 6 mps 746 mmHg 33%
16:00 +30°C° 0 mm 6 mps 746 mmHg 36%
17:00 +29°C° 0 mm 6 mps 745 mmHg 39%
18:00 +28°C° 0 mm 5 mps 745 mmHg 42%
19:00 +26°C° 0.2 mm 5 mps 745 mmHg 48%
20:00 +25°C° 0.2 mm 5 mps 745 mmHg 54%
21:00 +22°C° 0.2 mm 5 mps 745 mmHg 60%
22:00 +22°C° 0 mm 5 mps 745 mmHg 63%
23:00 +21°C° 0 mm 5 mps 745 mmHg 67%

Tomorrow, 16 June, Wednesday

Time Temperature Precipitation Wind Pressure Humidity
00:00 +21°C° 0 mm 4 mps 745 mmHg 70%
01:00 +20°C° 0 mm 5 mps 745 mmHg 73%
02:00 +20°C° 0 mm 5 mps 745 mmHg 76%
03:00 +19°C° 0 mm 5 mps 746 mmHg 79%
04:00 +20°C° 0 mm 5 mps 746 mmHg 78%
05:00 +21°C° 0 mm 5 mps 746 mmHg 77%
06:00 +21°C° 0 mm 5 mps 747 mmHg 76%
07:00 +23°C° 0 mm 6 mps 747 mmHg 69%
08:00 +26°C° 0 mm 6 mps 747 mmHg 62%
09:00 +27°C° 0 mm 6 mps 748 mmHg 55%
10:00 +28°C° 0 mm 6 mps 748 mmHg 52%
11:00 +29°C° 0 mm 7 mps 748 mmHg 48%
12:00 +30°C° 0 mm 7 mps 748 mmHg 45%
13:00 +30°C° 0 mm 6 mps 748 mmHg 44%
14:00 +30°C° 0 mm 6 mps 748 mmHg 44%
15:00 +30°C° 0 mm 6 mps 748 mmHg 44%
16:00 +30°C° 0 mm 5 mps 748 mmHg 47%
17:00 +29°C° 0 mm 5 mps 748 mmHg 51%
18:00 +28°C° 0 mm 5 mps 748 mmHg 54%
19:00 +27°C° 0 mm 4 mps 748 mmHg 60%
20:00 +25°C° 0 mm 4 mps 748 mmHg 66%
21:00 +24°C° 0 mm 3 mps 748 mmHg 72%
22:00 +22°C° 0 mm 3 mps 748 mmHg 75%
23:00 +21°C° 0 mm 3 mps 748 mmHg 78%

Day after tomorrow, 17 June, Thursday

Time Temperature Precipitation Wind Pressure Humidity
00:00 +21°C° 0 mm 3 mps 748 mmHg 81%
01:00 +20°C° 0 mm 3 mps 749 mmHg 83%
02:00 +20°C° 0 mm 3 mps 749 mmHg 85%
03:00 +19°C° 0 mm 3 mps 749 mmHg 87%
04:00 +20°C° 0 mm 3 mps 749 mmHg 84%
05:00 +21°C° 0 mm 4 mps 749 mmHg 81%
06:00 +22°C° 0 mm 4 mps 749 mmHg 78%
07:00 +23°C° 0 mm 5 mps 749 mmHg 73%
08:00 +25°C° 0 mm 5 mps 749 mmHg 68%
09:00 +26°C° 0 mm 6 mps 749 mmHg 63%
10:00 +27°C° 0 mm 6 mps 750 mmHg 59%
11:00 +28°C° 0 mm 7 mps 750 mmHg 56%
12:00 +28°C° 0 mm 7 mps 750 mmHg 52%
13:00 +28°C° 0 mm 7 mps 751 mmHg 52%
14:00 +28°C° 0 mm 7 mps 751 mmHg 51%
15:00 +28°C° 0 mm 7 mps 751 mmHg 51%
16:00 +27°C° 0 mm 7 mps 751 mmHg 52%
17:00 +26°C° 0 mm 7 mps 752 mmHg 52%
18:00 +24°C° 0 mm 7 mps 752 mmHg 53%
19:00 +23°C° 0 mm 6 mps 753 mmHg 57%
20:00 +21°C° 0 mm 6 mps 753 mmHg 60%
21:00 +19°C° 0 mm 5 mps 754 mmHg 64%
22:00 +19°C° 0 mm 5 mps 754 mmHg 65%
23:00 +17°C° 0 mm 5 mps 754 mmHg 67%

18 June, Friday

Time Temperature Precipitation Wind Pressure Humidity
00:00 +16°C° 0 mm 5 mps 754 mmHg 69%
01:00 +16°C° 0 mm 5 mps 754 mmHg 70%
02:00 +15°C° 0 mm 4 mps 754 mmHg 71%
03:00 +15°C° 0 mm 4 mps 754 mmHg 73%
04:00 +15°C° 0 mm 5 mps 755 mmHg 69%
05:00 +16°C° 0 mm 5 mps 755 mmHg 66%
06:00 +17°C° 0 mm 6 mps 755 mmHg 63%
07:00 +19°C° 0 mm 6 mps 756 mmHg 55%
08:00 +21°C° 0 mm 7 mps 756 mmHg 47%
09:00 +22°C° 0 mm 7 mps 756 mmHg 38%
10:00 +23°C° 0 mm 7 mps 756 mmHg 37%
11:00 +24°C° 0 mm 7 mps 756 mmHg 37%
12:00 +26°C° 0 mm 7 mps 757 mmHg 36%
13:00 +26°C° 0 mm 7 mps 757 mmHg 36%
14:00 +26°C° 0 mm 7 mps 757 mmHg 37%
15:00 +26°C° 0 mm 7 mps 757 mmHg 37%
16:00 +24°C° 0 mm 7 mps 757 mmHg 39%
17:00 +23°C° 0 mm 7 mps 757 mmHg 41%
18:00 +22°C° 0 mm 7 mps 758 mmHg 44%
19:00 +20°C° 0 mm 6 mps 758 mmHg 48%
20:00 +19°C° 0 mm 5 mps 758 mmHg 53%
21:00 +16°C° 0 mm 5 mps 758 mmHg 58%
22:00 +15°C° 0 mm 4 mps 759 mmHg 60%
23:00 +15°C° 0 mm 4 mps 759 mmHg 63%

19 June, Saturday

Time Temperature Precipitation Wind Pressure Humidity
00:00 +14°C° 0 mm 4 mps 759 mmHg 66%
01:00 +14°C° 0 mm 4 mps 759 mmHg 68%
02:00 +13°C° 0 mm 4 mps 759 mmHg 69%
03:00 +13°C° 0 mm 4 mps 760 mmHg 71%
04:00 +14°C° 0 mm 4 mps 760 mmHg 67%
05:00 +15°C° 0 mm 4 mps 760 mmHg 64%
06:00 +17°C° 0 mm 4 mps 761 mmHg 61%
07:00 +18°C° 0 mm 4 mps 761 mmHg 55%
08:00 +20°C° 0 mm 5 mps 761 mmHg 49%
09:00 +21°C° 0 mm 5 mps 761 mmHg 43%
10:00 +22°C° 0 mm 5 mps 761 mmHg 40%
11:00 +23°C° 0 mm 5 mps 760 mmHg 38%
12:00 +26°C° 0 mm 4 mps 760 mmHg 35%
13:00 +26°C° 0 mm 4 mps 760 mmHg 35%
14:00 +27°C° 0 mm 4 mps 760 mmHg 34%
15:00 +27°C° 0 mm 4 mps 759 mmHg 34%
16:00 +27°C° 0 mm 4 mps 759 mmHg 37%
17:00 +26°C° 0 mm 3 mps 759 mmHg 40%
18:00 +26°C° 0 mm 3 mps 759 mmHg 43%
19:00 +24°C° 0 mm 3 mps 759 mmHg 48%
20:00 +22°C° 0 mm 3 mps 759 mmHg 53%
21:00 +20°C° 0 mm 3 mps 759 mmHg 58%
22:00 +20°C° 0 mm 3 mps 759 mmHg 61%
23:00 +19°C° 0 mm 2 mps 759 mmHg 63%

20 June, Sunday

Time Temperature Precipitation Wind Pressure Humidity
00:00 +19°C° 0 mm 2 mps 759 mmHg 66%
01:00 +18°C° 0 mm 2 mps 759 mmHg 67%
02:00 +18°C° 0 mm 2 mps 759 mmHg 69%
03:00 +18°C° 0 mm 2 mps 759 mmHg 70%
04:00 +19°C° 0 mm 2 mps 759 mmHg 66%
05:00 +21°C° 0 mm 1 mps 759 mmHg 63%
06:00 +22°C° 0 mm 1 mps 759 mmHg 60%
07:00 +24°C° 0 mm 1 mps 759 mmHg 56%
08:00 +25°C° 0 mm 1 mps 759 mmHg 52%
09:00 +27°C° 0 mm 1 mps 759 mmHg 48%
10:00 +28°C° 0 mm 2 mps 759 mmHg 46%
11:00 +29°C° 0 mm 2 mps 758 mmHg 44%
12:00 +30°C° 0 mm 2 mps 758 mmHg 42%
13:00 +31°C° 0 mm 3 mps 758 mmHg 41%
14:00 +31°C° 0 mm 3 mps 757 mmHg 40%
15:00 +33°C° 0 mm 3 mps 757 mmHg 39%
16:00 +31°C° 0 mm 3 mps 757 mmHg 42%
17:00 +31°C° 0 mm 3 mps 757 mmHg 44%
18:00 +30°C° 0 mm 3 mps 756 mmHg 47%
19:00 +29°C° 0 mm 3 mps 756 mmHg 52%
20:00 +27°C° 0 mm 3 mps 757 mmHg 58%
21:00 +25°C° 0 mm 3 mps 757 mmHg 63%
22:00 +25°C° 0 mm 3 mps 757 mmHg 65%
23:00 +24°C° 0 mm 3 mps 756 mmHg 68%
Show more

We Need Your Consent

Meteoprog and our Service Providers may store and access personal data such as cookies, device identifiers or other similar technologies on your device and process such data to personalise content and ads, as well as provide social media features and to analyse the traffic.

  • Store and/or access information on your device

    Cookies, device identifiers or other information can be stored or accessed on your device for the purposes indicated above.

  • Personalised ads and content, ad and content measurement, audience insights, and products development

    Ads and content can be personalised based on a profile. More data can be added to better personalise ads and content. Ad and content performance can be measured. Insights about the audience who saw the ads and content can be derived. Such data can be used to develop or improve user’s experience, systems and software.

By clicking ‘I Agree’ you will allow the use of indicated cookies, device identifiers, web beacons or other similar technologies. Your settings can be changed in the browser on your device.

For certain purposes, legitimate interests may be relied on, rather than consent. You can read more about this in our Privacy and Cookie Policy.